Location: Gudip?du
(17.0263°N, 80.8301°E)
Time: 00:22:13
(UTC+00:00)

Meteosat 1 Rocket2 - Pass Details

Date: 03 August 2024
Orbit: 484 x 2282 km, 28.3° (Epoch: 18 September)

Event Time Altitude Azimuth Distance (km) Brightness Sun altitude
Rises 13:39:48 0° 219° (SW) 3,389 7.1 -7.9°
Reaches altitude 10° 13:43:13 10° 204° (SSW) 2,170 5.9 -8.7°
Maximum altitude 13:46:49 20° 156° (SSE) 1,367 4.4 -9.5°
Enters shadow 13:49:04 14° 115° (ESE) 1,579 4.5 -10.0°
